Location: Falls Church
(38.8823°N, 77.1711°W)
Time: 09:57:02
(UTC-04:00)

Hubble Space Telescope - Visible Passes

Search period start: 04 October 2024 00:00
Search period end: 14 October 2024 00:00
Orbit: 504 x 508 km, 28.5° (Epoch: 03 October)

Date Brightness Start Highest point End Pass type
(mag) Time Alt. Az. Time Alt. Az. Time Alt. Az.
04 Oct 2.9 06:11:53 10° SW 06:13:35 12° SSW 06:15:17 10° SSE visible
05 Oct 2.9 05:51:48 11° SSW 05:52:20 12° SSW 05:53:44 10° S visible
06 Oct 3.2 05:31:57 10° S 05:31:57 10° S 05:32:04 10° S visible
